Regional Weather Roundup
Issued by NWS

Home | Current Version | Previous Version | Text Only | Print | Product List | Glossary Off
Versions: 1 2 3 4 5 6 7 8 9 10 11 12 13 14 15 16 17 18 19 20 21 22 23 24 25 26 27 28 29 30 31 32 33 34 35 36 37 38 39 40 41 42 43 44 45 46 47 48 49 50

000
ASUS45 KCYS 311410
RWRWY

WYOMING REGIONAL WEATHER ROUNDUP
NATIONAL WEATHER SERVICE CHEYENNE WY
700 AM MST SAT JAN 31 2015

NOTE:  "FAIR" INDICATES FEW OR NO CLOUDS BELOW 12,000 FEET
WITH NO SIGNIFICANT WEATHER AND/OR OBSTRUCTIONS TO VISIBILITY.

WYZ001-311500-
YELLOWSTONE NATIONAL PARK

CITY           SKY/WX    TMP DP  RH WIND       PRES   REMARKS
LK YELLOWSTONE   N/A    -13 -19  75 CALM      30.03S
W YELLOWSTONE  NOT AVBL

$$
WYZ002>013-054>058-071-098>099-311500-
NORTHERN WYOMING

CITY           SKY/WX    TMP DP  RH WIND       PRES   REMARKS
JACKSON        CLEAR      5   1  85 N14       30.04F WCI -12
CODY           FAIR      21  19  93 CALM      29.91F
GREYBULL       FOG       24  22  91 CALM      29.95F VSB 1/4
WORLAND        HAZE      22  16  78 CALM      29.95F VSB 1/4
SHERIDAN       FAIR      23  17  78 CALM      29.90F
BUFFALO        FAIR      24  17  74 S3        29.89F
GILLETTE       FAIR      27  21  78 S8        29.91S WCI  19
HULETT           N/A    N/A N/A N/A MISG        N/A
NEWCASTLE      FAIR      27  23  86 CALM      29.97S

$$
WYZ014>020-022>026-101>103-311500-
CENTRAL WYOMING

CITY           SKY/WX    TMP DP  RH WIND       PRES   REMARKS
BIG PINEY      FAIR      20  16  84 CALM      29.97S
PINEDALE       FAIR      12   5  73 NW7       29.97S WCI   2
DUBOIS         FAIR      19   1  45 CALM      29.92S
LANDER         FAIR      23  18  81 SE3       29.92F
RIVERTON       FAIR      25  23  92 CALM      29.93F
CASPER         FAIR      26  22  84 SW9       29.91F WCI  17
DOUGLAS        FAIR      27  24  89 N5        29.95S WCI  22

$$
WYZ021-027>030-104>119-311500-
SOUTHERN WYOMING

CITY           SKY/WX    TMP DP  RH WIND       PRES   REMARKS
EVANSTON       MOCLDY    27  24  89 NE7       29.98R WCI  19
KEMMERER       FAIR      27  25  93 W5        29.98S WCI  21
FORT BRIDGER   CLOUDY    28  28 100 W5        30.00S WCI  23
ROCK SPRINGS   CLOUDY    26  24  92 SW7       29.94S WCI  18
DIXON          LGT SNOW  32  31  97 SW6       29.92S WCI  26
RAWLINS        CLOUDY    30  23  75 NW3       29.91S
SARATOGA       LGT SNOW  28  28 100 NW6       29.90F WCI  22
LARAMIE        CLOUDY    27  24  89 CALM      29.88S
CHEYENNE       CLOUDY    30  24  78 N6        29.90R WCI  24
TORRINGTON     CLOUDY    32  25  75 N6        29.94R WCI  26
PINE BLUFFS    CLOUDY    32  27  80 NW6       29.92R WCI  26

$$


USA.gov is the U.S. government's official web portal to all federal, state and local government web resources and services.